Torna al catalogo

COSMOS 1275 DEB

AttivoPO
NORAD 13796·DEBRIS·🇷🇺 Russia

Lanciato Jun 4, 1981 da Plesetsk Cosmodrome

Loading…

Prossimi Passaggi (prossime 24 ore)

TLE

AggiornatoSource: Space-Track

Epoca: Sep 14, 2026, 05:38 UTC

1 13796U 81053GQ  26257.23484032  .00000925  00000-0  78071-3 0  9993
2 13796  83.0200  76.0520 0109651 230.5508 256.4808 13.84101102195139

Traccia COSMOS 1275 DEB in tempo reale con AllMySat

Download on the App Store